TimeCST,TemperatureF,Dew PointF,Humidity,Sea Level PressureIn,VisibilityMPH,Wind Direction,Wind SpeedMPH,Gust SpeedMPH,PrecipitationIn,Events,Conditions,WindDirDegrees,DateUTC
12:09 AM,-14.8,-23.8,64,30.55,10.0,North,4.6,-,N/A,,Clear,360,2013-01-24 06:09:00
12:29 AM,-14.8,-23.8,64,30.55,10.0,Calm,Calm,-,N/A,,Clear,0,2013-01-24 06:29:00
12:50 AM,-16.6,-23.8,70,30.54,10.0,Calm,Calm,-,N/A,,Clear,0,2013-01-24 06:50:00
1:09 AM,-18.4,-25.6,70,30.55,10.0,Calm,Calm,-,N/A,,Clear,0,2013-01-24 07:09:00
1:29 AM,-18.4,-27.4,63,30.56,10.0,Calm,Calm,-,N/A,,Clear,0,2013-01-24 07:29:00
1:50 AM,-20.2,-27.4,69,30.57,10.0,Calm,Calm,-,N/A,,Clear,0,2013-01-24 07:50:00
2:09 AM,-22.0,-29.2,69,30.56,10.0,Calm,Calm,-,N/A,,Clear,0,2013-01-24 08:09:00
2:29 AM,-22.0,-31.0,63,30.57,10.0,Calm,Calm,-,N/A,,Clear,0,2013-01-24 08:29:00
2:49 AM,-25.6,-34.6,63,30.56,10.0,Calm,Calm,-,N/A,,Clear,0,2013-01-24 08:49:00
3:10 AM,-22.0,-29.2,69,30.56,10.0,Calm,Calm,-,N/A,,Clear,0,2013-01-24 09:10:00
3:29 AM,-23.8,-31.0,69,30.57,10.0,Calm,Calm,-,N/A,,Clear,0,2013-01-24 09:29:00
3:49 AM,-25.6,-32.8,69,30.57,10.0,Calm,Calm,-,N/A,,Clear,0,2013-01-24 09:49:00
4:10 AM,-27.4,-34.6,69,30.57,10.0,Calm,Calm,-,N/A,,Clear,0,2013-01-24 10:10:00
4:29 AM,-27.4,-34.6,69,30.56,10.0,Calm,Calm,-,N/A,,Clear,0,2013-01-24 10:29:00
4:49 AM,-27.4,-36.4,62,30.56,10.0,Calm,Calm,-,N/A,,Clear,0,2013-01-24 10:49:00
5:10 AM,-27.4,-34.6,69,30.56,10.0,Calm,Calm,-,N/A,,Clear,0,2013-01-24 11:10:00
5:29 AM,-27.4,-34.6,69,30.56,10.0,Calm,Calm,-,N/A,,Clear,0,2013-01-24 11:29:00
5:49 AM,-29.2,-36.4,68,30.56,10.0,Calm,Calm,-,N/A,,Clear,0,2013-01-24 11:49:00
6:10 AM,-31.0,-40.0,62,30.57,10.0,Calm,Calm,-,N/A,,Clear,0,2013-01-24 12:10:00
6:29 AM,-27.4,-36.4,62,30.58,10.0,Calm,Calm,-,N/A,,Clear,0,2013-01-24 12:29:00
6:49 AM,-31.0,-40.0,62,30.58,10.0,Calm,Calm,-,N/A,,Clear,0,2013-01-24 12:49:00
7:10 AM,-29.2,-36.4,68,30.58,10.0,Calm,Calm,-,N/A,,Clear,0,2013-01-24 13:10:00
7:29 AM,-31.0,-40.0,62,30.58,10.0,Calm,Calm,-,N/A,,Clear,0,2013-01-24 13:29:00
7:49 AM,-27.4,-36.4,62,30.57,10.0,Calm,Calm,-,N/A,,Clear,0,2013-01-24 13:49:00
8:10 AM,-27.4,-36.4,62,30.56,10.0,Calm,Calm,-,N/A,,Clear,0,2013-01-24 14:10:00
8:29 AM,-27.4,-34.6,69,30.54,-9999.0,Calm,Calm,-,N/A,,Clear,0,2013-01-24 14:29:00
8:49 AM,-25.6,-32.8,69,30.54,10.0,Calm,Calm,-,N/A,,Clear,0,2013-01-24 14:49:00
9:10 AM,-22.0,-27.4,76,30.56,10.0,Calm,Calm,-,N/A,,Clear,0,2013-01-24 15:10:00
9:29 AM,-20.2,-27.4,69,30.54,10.0,Calm,Calm,-,N/A,,Clear,0,2013-01-24 15:29:00
9:49 AM,-16.6,-25.6,64,30.54,10.0,Calm,Calm,-,N/A,,Clear,0,2013-01-24 15:49:00
10:10 AM,-16.6,-23.8,70,30.53,10.0,Calm,Calm,-,N/A,,Clear,0,2013-01-24 16:10:00
10:29 AM,-14.8,-22.0,70,30.53,10.0,Calm,Calm,-,N/A,,Clear,0,2013-01-24 16:29:00
10:49 AM,-13.0,-22.0,64,30.52,10.0,Calm,Calm,-,N/A,,Clear,0,2013-01-24 16:49:00
11:10 AM,-11.2,-20.2,64,30.52,10.0,Calm,Calm,-,N/A,,Clear,0,2013-01-24 17:10:00
11:29 AM,-9.4,-22.0,54,30.52,10.0,Calm,Calm,-,N/A,,Clear,0,2013-01-24 17:29:00
11:50 AM,-7.6,-18.4,59,30.50,10.0,South,3.5,-,N/A,,Clear,180,2013-01-24 17:50:00
12:09 PM,-7.6,-18.4,59,30.49,10.0,Calm,Calm,-,N/A,,Clear,0,2013-01-24 18:09:00
12:29 PM,-5.8,-18.4,55,30.47,10.0,SSE,3.5,-,N/A,,Scattered Clouds,150,2013-01-24 18:29:00
12:50 PM,-5.8,-18.4,55,30.46,10.0,South,4.6,-,N/A,,Scattered Clouds,180,2013-01-24 18:50:00
1:09 PM,-2.2,-14.8,55,30.46,10.0,SSE,5.8,-,N/A,,Scattered Clouds,160,2013-01-24 19:09:00
1:29 PM,-2.2,-14.8,55,30.44,10.0,South,5.8,-,N/A,,Scattered Clouds,190,2013-01-24 19:29:00
1:50 PM,-2.2,-14.8,55,30.43,10.0,South,5.8,-,N/A,,Overcast,180,2013-01-24 19:50:00
2:09 PM,-2.2,-14.8,55,30.43,10.0,South,3.5,-,N/A,,Overcast,190,2013-01-24 20:09:00
2:29 PM,-0.4,-14.8,51,30.40,10.0,South,6.9,-,N/A,,Overcast,180,2013-01-24 20:29:00
2:50 PM,-0.4,-14.8,51,30.39,10.0,South,6.9,-,N/A,,Overcast,170,2013-01-24 20:50:00
3:09 PM,-0.4,-13.0,55,30.39,10.0,South,9.2,-,N/A,,Overcast,180,2013-01-24 21:09:00
3:29 PM,-0.4,-13.0,55,30.36,10.0,SSE,9.2,-,N/A,,Overcast,160,2013-01-24 21:29:00
3:50 PM,-0.4,-13.0,55,30.34,10.0,SSE,5.8,-,N/A,,Overcast,160,2013-01-24 21:50:00
4:09 PM,-0.4,-13.0,55,30.34,10.0,South,6.9,-,N/A,,Overcast,180,2013-01-24 22:09:00
4:29 PM,-0.4,-13.0,55,30.33,10.0,SSE,8.1,-,N/A,,Overcast,160,2013-01-24 22:29:00
4:50 PM,1.4,-11.2,56,30.32,10.0,South,6.9,-,N/A,,Overcast,170,2013-01-24 22:50:00
5:09 PM,1.4,-11.2,56,30.31,10.0,South,8.1,-,N/A,,Overcast,170,2013-01-24 23:09:00
5:29 PM,1.4,-9.4,61,30.31,4.0,SSE,5.8,-,N/A,Snow,Light Snow,150,2013-01-24 23:29:00
5:50 PM,-0.4,-5.8,78,30.29,4.0,SE,6.9,-,N/A,Snow,Light Snow,140,2013-01-24 23:50:00
6:09 PM,-0.4,-5.8,78,30.28,3.0,SE,4.6,-,N/A,Snow,Light Snow,140,2013-01-25 00:09:00
6:29 PM,-0.4,-5.8,78,30.28,2.5,SSE,4.6,-,N/A,Snow,Light Snow,150,2013-01-25 00:29:00
6:50 PM,-0.4,-5.8,78,30.27,2.0,SE,4.6,-,N/A,Snow,Light Snow,130,2013-01-25 00:50:00
7:09 PM,-0.4,-5.8,78,30.25,2.0,SE,6.9,-,N/A,Snow,Light Snow,130,2013-01-25 01:09:00
7:29 PM,1.4,-5.8,72,30.25,5.0,SE,6.9,-,N/A,Snow,Light Snow,140,2013-01-25 01:29:00
7:50 PM,1.4,-5.8,72,30.21,10.0,SE,8.1,-,N/A,,Overcast,140,2013-01-25 01:50:00
8:09 PM,1.4,-4.0,78,30.20,3.0,SE,8.1,-,N/A,Snow,Light Snow,140,2013-01-25 02:09:00
8:29 PM,3.2,-4.0,72,30.18,2.5,SE,8.1,-,N/A,Snow,Light Snow,140,2013-01-25 02:29:00
8:49 PM,3.2,-4.0,72,30.18,5.0,SSE,9.2,-,N/A,Snow,Light Snow,150,2013-01-25 02:49:00
9:09 PM,3.2,-4.0,72,30.18,10.0,SSE,6.9,-,N/A,,Overcast,150,2013-01-25 03:09:00
9:30 PM,3.2,-2.2,78,30.16,10.0,SE,6.9,-,N/A,Snow,Light Snow,130,2013-01-25 03:30:00
9:49 PM,3.2,-2.2,78,30.13,7.0,SE,6.9,-,N/A,Snow,Light Snow,130,2013-01-25 03:49:00
10:09 PM,3.2,-0.4,85,30.12,7.0,SE,5.8,-,N/A,Snow,Light Snow,130,2013-01-25 04:09:00
10:30 PM,3.2,-0.4,85,30.11,10.0,SE,6.9,-,N/A,Snow,Light Snow,140,2013-01-25 04:30:00
10:49 PM,5.0,-0.4,78,30.10,10.0,SE,6.9,-,N/A,Snow,Light Snow,140,2013-01-25 04:49:00
11:09 PM,5.0,-0.4,78,30.10,10.0,SSE,6.9,-,N/A,,Overcast,160,2013-01-25 05:09:00
11:30 PM,5.0,-0.4,78,30.10,10.0,South,8.1,-,N/A,,Overcast,170,2013-01-25 05:30:00
11:49 PM,5.0,-0.4,78,30.08,10.0,South,8.1,-,N/A,,Overcast,180,2013-01-25 05:49:00